Time,TemperatureF,DewpointF,PressureIn,WindDirection,WindDirectionDegrees,WindSpeedMPH,WindSpeedGustMPH,Humidity,HourlyPrecipIn,Conditions,Clouds,dailyrainin,SoftwareType,DateUTC
2013-03-30 00:01:00,45.2,40.3,30.17,SW,226,0.0,0.0,83,0.00,,CLR,-99.99,VWS V12.07,2013-03-30 07:01:00,
2013-03-30 01:01:00,44.9,39.8,30.17,SW,226,0.0,0.0,82,0.00, BR,,-99.99,VWS V12.07,2013-03-30 08:01:00,
2013-03-30 02:00:00,43.6,40.0,30.18,SW,226,0.0,0.0,87,0.00, BR,,-99.99,VWS V12.07,2013-03-30 09:00:00,
2013-03-30 03:00:00,42.5,38.6,30.18,WSW,237,0.0,0.0,86,0.00, FG,,-99.99,VWS V12.07,2013-03-30 10:00:00,
2013-03-30 04:01:00,41.6,38.6,30.17,WSW,237,0.0,0.0,89,0.00, FG,,-99.99,VWS V12.07,2013-03-30 11:01:00,
2013-03-30 05:01:00,41.8,37.9,30.17,WSW,237,0.0,2.0,86,0.00, FG,,-99.99,VWS V12.07,2013-03-30 12:01:00,
2013-03-30 07:00:00,40.8,38.1,30.18,WSW,248,0.0,0.0,90,0.00, FG,,-99.99,VWS V12.07,2013-03-30 14:00:00,
2013-03-30 08:01:00,42.5,39.2,30.19,WSW,250,0.0,0.0,88,0.00, FG,,-99.99,VWS V12.07,2013-03-30 15:01:00,
2013-03-30 09:01:00,44.5,40.3,30.19,WSW,253,0.0,0.0,85,0.00,,FEW001,-99.99,VWS V12.07,2013-03-30 16:01:00,
2013-03-30 10:01:00,48.2,41.3,30.18,ENE,65,3.0,4.0,77,0.00,,FEW001,-99.99,VWS V12.07,2013-03-30 17:01:00,
2013-03-30 11:01:00,52.6,42.3,30.16,ENE,66,3.0,3.0,68,0.00,,CLR,-99.99,VWS V12.07,2013-03-30 18:01:00,
2013-03-30 12:01:00,56.0,44.0,30.15,ENE,75,4.0,4.0,64,0.00,,CLR,-99.99,VWS V12.07,2013-03-30 19:01:00,
2013-03-30 13:01:00,59.9,42.7,30.12,East,92,1.0,10.0,53,0.00,,CLR,-99.99,VWS V12.07,2013-03-30 20:01:00,
2013-03-30 14:01:00,62.0,45.7,30.10,East,89,3.0,7.0,55,0.00,,CLR,-99.99,VWS V12.07,2013-03-30 21:01:00,
2013-03-30 15:01:00,65.0,42.6,30.07,East,85,0.0,3.0,44,0.00,,CLR,-99.99,VWS V12.07,2013-03-30 22:01:00,
2013-03-30 16:01:00,65.8,42.1,30.05,ENE,73,5.0,6.0,42,0.00,,CLR,-99.99,VWS V12.07,2013-03-30 23:01:00,
2013-03-30 17:01:00,65.8,42.1,30.03,NE,49,3.0,8.0,42,0.00,,CLR,-99.99,VWS V12.07,2013-03-31 00:01:00,
2013-03-30 19:01:00,61.5,45.7,30.01,East,80,3.0,3.0,56,0.00,,CLR,-99.99,VWS V12.07,2013-03-31 02:01:00,
2013-03-30 20:01:00,55.4,43.8,30.01,East,79,0.0,0.0,65,0.00,,CLR,-99.99,VWS V12.07,2013-03-31 03:01:00,
2013-03-30 21:01:00,52.3,42.8,30.01,East,79,0.0,0.0,70,0.00,,CLR,-99.99,VWS V12.07,2013-03-31 04:01:00,
2013-03-30 23:00:00,48.6,41.4,30.00,East,79,0.0,0.0,76,0.00,,CLR,-99.99,VWS V12.07,2013-03-31 06:00:00,